Location: Mountain Grove
(34.0887°N, 86.6172°W)
Time: 15:11:28
(UTC+00:00)

Cosmos 2278 Rocket - Pass Details

Date: 14 July 2020
Orbit: 841 x 845 km, 71.0° (Epoch: 12 August)

Event Time Altitude Azimuth Distance (km) Brightness Sun altitude
Rises 03:39:51 0° 328° (NNW) 3,406 6.7 -26.0°
Reaches altitude 10° 03:42:29 10° 320° (NW) 2,466 5.6 -26.3°
Maximum altitude 03:47:33 35° 256° (WSW) 1,330 3.3 -26.9°
Enters shadow 03:48:46 32° 230° (SW) 1,418 3.2 -27.0°
